596  
ASUS43 KOAX 160502  
RWRNE  
 
WEATHER ROUNDUP FOR NEBRASKA  
NATIONAL WEATHER SERVICE OMAHA NE  
1200 AM CDT SUN JUN 16 2024  
 
NOTES: SATELLITE DATA IS BEING USED TO AUGMENT CLOUD COVER ABOVE  
12000 FEET.  
"FAIR" INDICATES FEW OR NO CLOUDS BELOW 12,000 FEET WITH NO  
SIGNIFICANT WEATHER AND/OR S TO VISIBILITY
.  
 
 
NEZ001>004-019>022-054>056-160600-  
NEBRASKA PANHANDLE  
 
CITY SKY/WX TMP DP RH WIND PRES REMARKS
 
SCOTTSBLUFF CLEAR 75 45 34 VRB3 29.73R  
ALLIANCE PTCLDY 60 51 72 SE7 29.72R  
CHADRON CLEAR 77 45 32 S13 29.62R  
SIDNEY MOCLDY 67 51 56 S13 29.80R  

 
 
NEZ057>060-069>072-079>082-160600-  
SOUTHWEST NEBRASKA  
 
CITY SKY/WX TMP DP RH WIND PRES REMARKS
 
NORTH PLATTE CLEAR 72 66 81 W8 29.73R  
IMPERIAL MOCLDY 76 55 48 W14 29.79R  
MCCOOK PTCLDY N/A N/A N/A S9 29.73R  

 
 
NEZ005>010-023>029-035>040-094-160600-  
NORTH CENTRAL NEBRASKA  
 
CITY SKY/WX TMP DP RH WIND PRES REMARKS
 
VALENTINE MOCLDY 73 57 57 E10 29.67F  
AINSWORTH PTCLDY 71 66 84 S9 29.67F  
BROKEN BOW PTCLDY 69 66 90 MISG 29.71R  
ORD CLEAR 74 65 73 SE8 29.69S  

 
 
NEZ041-046>049-061>064-073>077-083>087-160600-  
SOUTH CENTRAL NEBRASKA  
 
CITY SKY/WX TMP DP RH WIND PRES REMARKS
 
GRAND ISLAND CLEAR 74 65 73 S18G29 29.72S  
HASTINGS CLEAR 73 64 73 SE17G29 29.73S  
KEARNEY CLEAR 73 66 78 S14 29.73R  

 
 
NEZ011>018-030>034-042>045-160600-  
NORTHEAST NEBRASKA  
 
CITY SKY/WX TMP DP RH WIND PRES REMARKS
 
NORFOLK CLEAR 71 63 75 SE14 29.72R  
COLUMBUS PTCLDY 72 65 78 S15 29.74S  
TEKAMAH CLOUDY 71 64 78 SE15 29.73F  

 
 
NEZ050>053-065>068-078-088>093-160600-  
SOUTHEAST NEBRASKA  
 
CITY SKY/WX TMP DP RH WIND PRES REMARKS
 
LINCOLN PTCLDY 71 65 81 S13 29.76S  
OMAHA EPPLEY CLOUDY 68 65 90 SE6 29.76R  
FALLS CITY MOCLDY 74 69 85 SE8 29.80R  
NEBRASKA CITY PTCLDY 67 66 94 S5 29.79S  

 
 
NEZ044-045-051>053-067-160600-  
OMAHA AREA  
 
CITY SKY/WX TMP DP RH WIND PRES REMARKS
 
OMAHA EPPLEY CLOUDY 68 65 90 SE6 29.76R  
OFFUTT AFB PTCLDY 69 64 83 SE7 29.75F  
WAHOO MOCLDY 69 64 84 SE8 29.75F  

 
 
 
CLICK HERE TO GO TO PREVIOUS BULLETINS.

The Nexlab NE Page Main Text Page